TimeAKST,TemperatureF,Dew PointF,Humidity,Sea Level PressureIn,VisibilityMPH,Wind Direction,Wind SpeedMPH,Gust SpeedMPH,PrecipitationIn,Events,Conditions,WindDirDegrees,DateUTC
12:53 AM,-5.1,-11.0,76,29.59,10.0,Calm,Calm,-,N/A,,Partly Cloudy,0,2014-02-18 09:53:00
1:53 AM,-4.0,-11.9,69,29.61,10.0,North,5.8,-,N/A,,Clear,10,2014-02-18 10:53:00
2:53 AM,-4.0,-11.9,69,29.63,10.0,North,5.8,-,N/A,,Clear,350,2014-02-18 11:53:00
3:53 AM,-2.9,-11.9,65,29.65,10.0,NNE,6.9,-,N/A,,Clear,20,2014-02-18 12:53:00
4:53 AM,-2.9,-11.9,65,29.66,10.0,North,8.1,-,N/A,,Clear,350,2014-02-18 13:53:00
5:53 AM,-2.0,-11.0,66,29.67,10.0,NNW,8.1,-,N/A,,Clear,340,2014-02-18 14:53:00
6:53 AM,-2.0,-11.0,66,29.68,10.0,NNW,8.1,-,N/A,,Clear,330,2014-02-18 15:53:00
7:53 AM,-0.9,-11.0,62,29.67,10.0,Variable,3.5,-,N/A,,Clear,0,2014-02-18 16:53:00
8:53 AM,-6.0,-13.0,72,29.68,10.0,North,4.6,-,N/A,,Clear,360,2014-02-18 17:53:00
9:53 AM,-5.1,-11.9,72,29.70,10.0,Calm,Calm,-,N/A,,Clear,0,2014-02-18 18:53:00
10:53 AM,3.9,-9.0,55,29.70,10.0,NNW,8.1,-,N/A,,Clear,340,2014-02-18 19:53:00
11:53 AM,7.0,-7.1,53,29.70,10.0,NNW,9.2,-,N/A,,Clear,340,2014-02-18 20:53:00
12:53 PM,9.0,-7.1,48,29.70,10.0,NW,5.8,-,N/A,,Clear,310,2014-02-18 21:53:00
1:53 PM,10.0,-6.0,48,29.70,10.0,NNW,10.4,-,N/A,,Clear,330,2014-02-18 22:53:00
2:53 PM,10.0,-2.9,56,29.70,10.0,WNW,8.1,-,N/A,,Clear,300,2014-02-18 23:53:00
3:53 PM,10.0,-2.0,58,29.70,10.0,East,6.9,-,N/A,,Partly Cloudy,90,2014-02-19 00:53:00
4:53 PM,10.0,-5.1,51,29.70,10.0,Calm,Calm,-,N/A,,Partly Cloudy,0,2014-02-19 01:53:00
5:53 PM,8.1,-6.0,53,29.70,10.0,Calm,Calm,-,N/A,,Partly Cloudy,0,2014-02-19 02:53:00
6:53 PM,3.0,-8.0,60,29.70,10.0,East,5.8,-,N/A,,Partly Cloudy,80,2014-02-19 03:53:00
7:53 PM,-0.0,-9.9,63,29.71,10.0,North,3.5,-,N/A,,Partly Cloudy,360,2014-02-19 04:53:00
8:53 PM,1.9,-13.0,50,29.71,10.0,NW,8.1,-,N/A,,Clear,310,2014-02-19 05:53:00
9:53 PM,1.0,-14.1,49,29.71,10.0,NNW,9.2,-,N/A,,Clear,340,2014-02-19 06:53:00
10:53 PM,-0.9,-15.0,52,29.72,10.0,Calm,Calm,-,N/A,,Clear,0,2014-02-19 07:53:00
11:53 PM,-2.9,-15.0,56,29.72,10.0,Calm,Calm,-,N/A,,Clear,0,2014-02-19 08:53:00